Zurück zum Katalog

COSMOS 1249 COOLANT

AktivLEO
NORAD 26512·DEBRIS·🇷🇺 Russia

Gestartet Mar 5, 1981 von Baikonur Cosmodrome

Loading…

Nächste Überflüge (nächste 24 Stunden)

TLE

VeraltetSource: Space-Track

Epoche: Sep 2, 2026, 08:10 UTC

1 26512U 81021P   26245.34079465  .00000088  00000-0  13602-3 0  9996
2 26512  64.9642  87.3983 0056863 223.3573 315.5641 13.92839134664329

Verfolge COSMOS 1249 COOLANT in Echtzeit mit AllMySat

Download on the App Store